{"data":{"norad_id":51799,"epoch":"2026-05-24T23:57:42.469344Z","epoch_age_seconds":85621,"freshness":"FRESH","line1":"1 51799U 22017AH  26144.99840821  .00000371  00000+0  41381-4 0  9992","line2":"2 51799  53.2151   6.5544 0001764  89.8137 270.3058 15.08840595235446","mean_motion":15.08840595,"eccentricity":0.0001764,"inclination_deg":53.2151,"raan_deg":6.5544,"arg_perigee_deg":89.8137,"mean_anomaly_deg":270.3058,"bstar":4.1381e-5,"rev_number":23544,"period_min":95.43751704268,"perigee_km":538.52125650794,"apogee_km":540.96188406753,"semimajor_km":6917.8785702877,"source":"CELESTRAK","updated_at":"2026-05-25T13:38:16.956142Z"}}